Location: Peterborough
(44.3091°N, 78.3197°W)
Time: 09:00:49
(UTC-04:00)

A-11 Canister half - Pass Details

Date: 16 September 2024
Orbit: 1515 x 1684 km, 47.2° (Epoch: 02 October)

Event Time Altitude Azimuth Distance (km) Brightness Sun altitude
Rises 22:01:11 0° 270° (W) 4,703 12.4 -27.7°
Reaches altitude 10° 22:04:17 10° 272° (W) 3,705 11.7 -28.2°
Maximum altitude 22:13:36 75° 358° (N) 1,566 9.0 -29.5°
Enters shadow 22:17:16 42° 73° (ENE) 2,050 9.3 -30.0°
